Regional Weather Roundup
Issued by NWS

Home | Current Version | Previous Version | Graphics & Text | Print | Product List | Glossary Off
Versions: 1 2 3 4 5 6 7 8 9 10 11 12 13 14 15 16 17 18 19 20 21 22 23 24 25 26 27 28 29 30 31 32 33 34 35 36 37 38 39 40 41 42 43 44 45 46 47 48 49 50

000
ASUS44 KFWD 160815
RWRTX
NORTH TEXAS HOURLY WEATHER ROUNDUP
NATIONAL WEATHER SERVICE FORT WORTH TX
200 AM CST WED JAN 16 2019

NOTE: "FAIR" INDICATES FEW OR NO CLOUDS BELOW 12,000 FEET WITH NO
SIGNIFICANT WEATHER AND/OR OBSTRUCTIONS TO VISIBILITY.

TXZ118-119-160900-
DALLAS/FORT WORTH METROPLEX

CITY           SKY/WX    TMP DP  RH WIND       PRES   REMARKS
DFW AIRPORT    FAIR      47  42  83 S8        30.19F
DALLAS LOVE    CLOUDY    49  43  80 S8        30.22S
FTW MEACHAM    FAIR      44  42  93 SE7       30.20F
DAL-EXECUTIVE    N/A     47  42  83 S8        30.21S
FTW-ALLIANCE   FAIR      43  40  89 S7        30.20S WCI  39
FTW-NAS-JRB    FAIR      46  42  86 SE6       30.20F
FTW-SPINKS     FAIR      44  41  89 S7        30.21F FOG
ARLINGTON      FAIR      47  44  90 S8        30.21S
GRAND PRAIRIE  FAIR      47  42  82 S6        30.23S
ADDISON        CLOUDY    47  42  81 SE7       30.23S
MESQUITE       CLOUDY    46  42  84 SE7       30.24S
LANCASTER      CLOUDY    47  42  83 S5        30.24F
$$

TXZ091>094-102>105-117-120-121-131>134-160900-
NORTH CENTRAL TEXAS

CITY           SKY/WX    TMP DP  RH WIND       PRES   REMARKS
SHRMAN/DENISON CLOUDY    46  40  81 S6        30.22S
GAINESVILLE    CLOUDY    45  40  84 CALM      30.22S
BOWIE          FAIR      42  40  93 SE5       30.18S WCI  39
BRIDGEPORT     FAIR      39  39 100 CALM      30.21R FOG
DECATUR        FAIR      43  40  91 SE7       30.18S FOG     WCI  39
DENTON         FAIR      44  39  82 SE6       30.20F
MCKINNEY       CLOUDY    47  41  80 S8        30.22F
BONHAM         CLOUDY    44  39  81 S7        30.23S
GREENVILLE     CLOUDY    50  43  76 S3        30.25R
ROCKWALL       CLOUDY    50  45  81 S3        30.23S
TERRELL        CLOUDY    48  41  76 S7        30.24S
WAXAHACHIE     FAIR      44  44  99 SE5       30.23F
CLEBURNE       MOCLDY    43  43 100 S8        30.22S FOG     WCI  38
GRANBURY       FAIR      45  42  89 SE7       30.21S FOG
$$

TXZ083>090-098>101-113>116-127>130-139>142-154-155-160900-
WESTERN NORTH TEXAS

CITY           SKY/WX    TMP DP  RH WIND       PRES   REMARKS
WICHITA FALLS  FAIR      38  38 100 SE8       30.14F WCI  32
WF-KICKAPOO    FAIR      40  40  97 SE6       30.17S WCI  36
VERNON         FAIR      41  40  97 S7        30.13S WCI  36
ABILENE        CLOUDY    46  45  96 S16       30.13F WCI  39
ABILENE-DYESS  CLOUDY    45  40  83 S14       30.13F WCI  38
GRAHAM         FAIR      44  43  97 SE5       30.14F
BRECKENRIDGE   FAIR      44  43  97 S7        30.15F
CISCO          CLOUDY    45  43  93 SW15G21   30.15F WCI  38
EASTLAND       MOCLDY    42  42  97 S7        30.16F WCI  38
RANGER         FAIR      42  42 100 S6        30.16F FOG     WCI  38
MINERAL WELLS  FAIR      42  40  92 SE9       30.17S FOG     WCI  37
STEPHENVILLE   CLOUDY    44  42  93 S5        30.20F VSB 1/4
COMANCHE       CLOUDY    46  46 100 SW9       30.18S
BROWNWOOD      CLOUDY    45  45 100 S5        30.19S
COLEMAN        CLOUDY    47  44  90 SW10      30.18S
BRADY          CLOUDY    48  46  93 SW14      30.19F
$$

TXZ143>147-156>162-174-175-160900-
CENTRAL TEXAS

CITY           SKY/WX    TMP DP  RH WIND       PRES   REMARKS
WACO           CLOUDY    48  44  86 S8        30.23F
WACO-MCGREGOR  CLOUDY    46  45  96 S9        30.23F
CORSICANA      FAIR      44  40  85 SE6       30.25F
MEXIA          CLOUDY    46  41  81 S9        30.24S
HEARNE         CLOUDY    46  46 100 CALM      30.28R
CAMERON        CLOUDY    48  45  89 S6        30.26R
KILLEEN        CLOUDY    46  45  96 S6        30.21F
KILLEEN-SKYLRK CLOUDY    47  45  93 S6        30.23F
FORT HOOD      CLOUDY    47  45  93 S5        30.18F
GATESVILLE     CLOUDY    45  45 100 CALM      30.23S FOG
HAMILTON       CLOUDY    45  45 100 S7        30.20S FOG
LAMPASAS       CLOUDY    47  46  96 S3        30.20S
$$

TXZ095>097-106>112-122>126-135>138-148>153-164>167-160900-
EAST TEXAS

CITY           SKY/WX    TMP DP  RH WIND       PRES   REMARKS
PARIS          CLOUDY    44  40  85 SE6       30.25S
SULPHUR SPRNGS CLOUDY    47  41  80 S5        30.27R
MOUNT PLEASANT MOCLDY    46  39  76 CALM      30.27S
GILMER         CLOUDY    46  40  78 CALM      30.26S
MINEOLA          N/A    N/A N/A N/A MISG        N/A
TYLER          CLOUDY    48  41  76 S7        30.25S
LONGVIEW       CLOUDY    48  42  80 S3        30.25S
MARSHALL       CLOUDY    46  40  79 CALM      30.29R
ATHENS         CLOUDY    46  41  81 CALM      30.25S
PALESTINE      CLOUDY    48  42  80 SE7       30.27F
JACKSONVILLE   CLOUDY    46  42  85 S5        30.27F
HENDERSON      CLOUDY    47  41  80 MISG      30.27S
CENTER         CLOUDY    46  45  95 CALM      30.29
NACOGDOCHES    CLOUDY    47  42  83 S3        30.28S
LUFKIN         CLOUDY    46  43  89 S3        30.28F
$$

SUPPLEMENTAL OBSERVATIONS (NWS FORT WORTH AREA)

CITY           SKY/WX    TMP DP  RH WIND       PRES   REMARKS
DENISON DAM      N/A     46  39  76 SE7         N/A
CADDO GRASSLND   N/A     45  39  81 S3          N/A
CEDAR HILL       N/A     46  43  87 S6          N/A
LBJ GRASSLAND    N/A     45  39  81 SE7         N/A
COMANCHE         N/A     46  43  87 SW14        N/A
MCGREGOR         N/A     46  43  87 S7          N/A
LAKE LIMESTONE   N/A     46  41  81 S5          N/A
ATHENS           N/A     46  39  76 S3          N/A
$$

SUPPLEMENTAL OBSERVATIONS (NWS NORMAN AREA)

CITY           SKY/WX    TMP DP  RH WIND       PRES   REMARKS
MILLERS CREEK    N/A     43  39  87 SW6         N/A  WCI  39
$$

SUPPLEMENTAL OBSERVATIONS (NWS SAN ANGELO AREA)

CITY           SKY/WX    TMP DP  RH WIND       PRES   REMARKS
IVIE RESERVOIR   N/A     48  43  81 SW6         N/A
COLORADO BEND    N/A     50  45  81 SW9         N/A
$$

SUPPLEMENTAL OBSERVATIONS (NWS SHREVEPORT AREA)

CITY           SKY/WX    TMP DP  RH WIND       PRES   REMARKS
TEXARKANA        N/A     45  39  81 CALM        N/A
LINDEN           N/A     46  41  81 SE1         N/A
CADDO LAKE       N/A     45  41  87 CALM        N/A
LUFKIN           N/A     48  43  81 MISG        N/A
N SABINE NF      N/A     46  43  87 MISG        N/A
$$

SUPPLEMENTAL OBSERVATIONS ARE A COLLECTION OF AUTOMATED INSTRUMENTS
THAT ARE MAINTAINED BY A VARIETY OF FEDERAL AND STATE AGENCIES.
CERTAIN ELEMENTS...SUCH AS HUMIDITY VALUES AND SUSTAINED WIND
SPEEDS...MAY BE APPROXIMATED.




USA.gov is the U.S. government's official web portal to all federal, state and local government web resources and services.